Tracking 25711 objects as of 22-May-2022
HD Live streaming from Space Station
objects crossing your sky now

SMS 2 AKM

Track SMS 2 AKM now!


NORAD ID: 20835
Int'l Code: 1975-011F
Perigee: 35,864.5 km
Apogee: 36,681.6 km
Inclination: 7.6 °
Period: 1,460.7 minutes
Semi major axis: 42643 km
RCS: 0.7943 m2 (medium)
Launch date: February 6, 1975
Source: United States (US)
Launch site: AIR FORCE EASTERN TEST RANGE (AFETR)

Note: This is a ROCKET BODY
aabbcc
Your satellite tracking list
Your tracking list is empty




NASA's NSSDC Master Catalog

Two Line Element Set (TLE):
1 20835U 75011F   22141.44210028 -.00000015  00000-0  00000-0 0  9990
2 20835   7.6100 292.7129 0095806  99.5615 272.8412  0.98586151 31912
Source of the keplerian elements: AFSPC